CW3518 Weather Reports


Display with metric or nautical units.
time (UTC)temp
F
wind
direction
speed
MPH
gust
MPH
rain 1hr
in
rain 24hr
in
rain mn
in
humidity
%
barometer
mb
20260509053525 67 247 7.0 10.0 0.00 0.42 0.00 95 1010.7
20260509053026 67 222 8.0 9.0 0.00 0.42 0.00 95 1010.7
20260509052526 67 242 6.0 9.0 0.00 0.42 0.00 94 1010.8
20260509052025 68 219 8.0 10.0 0.00 0.42 0.00 94 1010.6
20260509051526 67 221 7.0 10.0 0.00 0.42 0.00 94 1010.7
20260509051026 68 230 9.0 10.0 0.00 0.42 0.00 93 1011.0
20260509050526 68 203 5.0 8.0 0.00 0.42 0.00 93 1010.9
20260509050026 68 208 7.0 7.0 0.00 0.42 0.00 93 1010.9
20260509045526 68 180 4.0 5.0 0.00 0.42 0.42 92 1011.0
20260509045026 69 230 4.0 4.0 0.00 0.42 0.42 91 1011.6
20260509044526 68 272 1.0 8.0 0.00 0.42 0.42 91 1012.0
20260509043526 68 4 9.0 13.0 0.00 0.42 0.42 91 1012.4
20260509043026 68 337 7.0 20.0 0.00 0.42 0.42 92 1012.4
20260509042526 68 336 13.0 22.0 0.00 0.42 0.42 92 1012.6
20260509042026 67 334 20.0 22.0 0.00 0.42 0.42 92 1012.5
20260509041526 68 340 15.0 15.0 0.00 0.42 0.42 91 1012.0
20260509041027 68 8 3.0 6.0 0.00 0.42 0.42 92 1010.9
20260509040026 69 56 4.0 5.0 0.00 0.42 0.42 91 1010.9
20260509035526 69 53 3.0 5.0 0.00 0.42 0.42 90 1010.6
20260509035026 69 122 4.0 5.0 0.00 0.42 0.42 90 1010.3
20260509034526 69 182 4.0 7.0 0.00 0.42 0.42 90 1010.1
20260509034026 69 127 5.0 8.0 0.00 0.42 0.42 90 1010.1
20260509033526 69 136 5.0 9.0 0.00 0.42 0.42 90 1009.9
20260509033026 69 150 8.0 11.0 0.00 0.42 0.42 89 1009.8
20260509032526 69 127 9.0 11.0 0.00 0.42 0.42 89 1009.9
20260509031526 69 0 0.0 12.0 0.00 0.42 0.42 89 1009.7
20260509025526 70 106 12.0 14.0 0.00 0.42 0.42 87 1010.0
20260509024526 70 98 11.0 14.0 0.00 0.42 0.42 88 1010.3
20260509024026 69 77 8.0 14.0 0.00 0.42 0.42 88 1010.4
20260509023526 69 43 12.0 14.0 0.00 0.42 0.42 89 1010.4
20260509023026 69 48 9.0 11.0 0.00 0.42 0.42 90 1010.4
20260509022527 69 38 8.0 11.0 0.00 0.42 0.42 90 1010.3
20260509022026 69 39 8.0 11.0 0.00 0.42 0.42 90 1010.0
20260509021526 69 39 7.0 11.0 0.00 0.42 0.42 88 1009.6
20260509021026 69 97 9.0 11.0 0.00 0.42 0.42 88 1008.9
20260509020526 70 116 9.0 11.0 0.00 0.42 0.42 87 1008.6
20260509020026 70 136 9.0 11.0 0.00 0.42 0.42 87 1008.4
20260509015527 70 0 0.0 12.0 0.00 0.42 0.42 86 1008.1
20260509015026 70 0 0.0 12.0 0.00 0.42 0.42 86 1008.0
20260509014526 70 146 11.0 12.0 0.00 0.42 0.42 85 1008.0
20260509014026 70 136 10.0 12.0 0.00 0.42 0.42 84 1008.1
20260509013526 71 157 9.0 12.0 0.00 0.42 0.42 83 1008.1
20260509013026 71 0 0.0 11.0 0.00 0.42 0.42 83 1008.1
20260509012026 71 181 9.0 11.0 0.00 0.42 0.42 81 1008.1
20260509011526 72 188 10.0 11.0 0.00 0.42 0.42 80 1008.3
20260509011026 72 178 9.0 11.0 0.00 0.42 0.42 80 1008.5
20260509010526 72 167 5.0 11.0 0.00 0.42 0.42 79 1008.5
20260509010026 73 166 6.0 9.0 0.00 0.42 0.42 79 1008.5
20260509005526 73 178 5.0 9.0 0.00 0.42 0.42 79 1008.6
20260509004526 73 197 9.0 10.0 0.00 0.42 0.42 78 1008.7
20260509003526 73 200 7.0 11.0 0.00 0.42 0.42 77 1008.6
20260509003026 73 173 11.0 11.0 0.00 0.42 0.42 76 1008.5
20260509002526 74 170 8.0 11.0 0.00 0.42 0.42 75 1008.4
20260509002026 74 172 8.0 11.0 0.00 0.42 0.42 75 1008.4
20260509001526 74 170 8.0 11.0 0.00 0.42 0.42 74 1008.4
20260509001027 74 197 10.0 11.0 0.00 0.42 0.42 74 1008.3
20260509000526 74 195 9.0 11.0 0.00 0.42 0.42 73 1008.2
20260509000026 75 157 11.0 12.0 0.00 0.42 0.42 72 1008.1
20260508235026 75 177 12.0 14.0 0.00 0.42 0.42 71 1008.0
20260508234526 75 180 11.0 14.0 0.00 0.42 0.42 70 1008.0
20260508234026 75 188 11.0 14.0 0.00 0.42 0.42 69 1008.0
20260508233526 75 179 10.0 14.0 0.00 0.42 0.42 69 1008.2
20260508232526 75 160 8.0 13.0 0.00 0.42 0.42 69 1008.3
20260508232027 76 175 11.0 13.0 0.00 0.42 0.42 68 1008.4
20260508231526 76 171 11.0 13.0 0.00 0.42 0.42 67 1008.4
20260508231026 76 143 7.0 12.0 0.00 0.42 0.42 68 1008.4
20260508230526 76 203 8.0 12.0 0.00 0.42 0.42 68 1008.4
20260508230026 76 201 10.0 12.0 0.00 0.42 0.42 68 1008.5
20260508225526 76 169 7.0 13.0 0.00 0.42 0.42 67 1008.5
20260508225026 76 188 10.0 13.0 0.00 0.42 0.42 68 1008.5
20260508224526 76 191 9.0 13.0 0.00 0.42 0.42 68 1008.5
20260508224026 76 169 6.0 13.0 0.00 0.42 0.42 68 1008.5
20260508223026 77 184 7.0 13.0 0.00 0.42 0.42 69 1008.6
20260508222526 76 169 11.0 13.0 0.00 0.42 0.42 68 1008.5
20260508222026 76 174 9.0 12.0 0.00 0.42 0.42 67 1008.5
20260508221527 77 166 11.0 13.0 0.00 0.42 0.42 66 1008.5
20260508220526 77 164 9.0 12.0 0.00 0.42 0.42 66 1008.6
20260508220026 77 176 9.0 12.0 0.00 0.42 0.42 66 1008.5
20260508215528 77 202 11.0 13.0 0.00 0.42 0.42 67 1008.6
20260508215026 77 177 12.0 13.0 0.00 0.42 0.42 65 1008.5
20260508214527 77 149 11.0 12.0 0.00 0.42 0.42 65 1008.6
20260508213526 77 155 10.0 13.0 0.00 0.42 0.42 65 1008.7
20260508213026 76 143 10.0 13.0 0.00 0.42 0.42 66 1008.8
20260508212526 76 175 9.0 13.0 0.00 0.42 0.42 65 1008.9
20260508212027 76 159 11.0 13.0 0.00 0.42 0.42 65 1008.9
20260508211026 76 166 9.0 13.0 0.00 0.42 0.42 66 1008.9
20260508210526 76 154 11.0 12.0 0.00 0.42 0.42 65 1009.0
20260508210026 76 213 7.0 13.0 0.00 0.42 0.42 66 1009.0
20260508205527 75 172 11.0 14.0 0.00 0.42 0.42 65 1009.1
20260508205026 76 195 9.0 14.0 0.00 0.42 0.42 67 1009.2
20260508204526 76 179 10.0 18.0 0.00 0.42 0.42 65 1009.4
20260508204026 75 217 13.0 19.0 0.00 0.42 0.42 67 1009.6
20260508203526 75 214 14.0 19.0 0.00 0.42 0.42 67 1009.5
20260508203026 75 219 16.0 18.0 0.00 0.42 0.42 67 1009.7
20260508202526 75 193 12.0 18.0 0.00 0.42 0.42 67 1009.9
20260508202026 75 197 14.0 16.0 0.00 0.42 0.42 67 1009.8
20260508201526 76 203 15.0 15.0 0.00 0.42 0.42 67 1010.0
20260508201027 76 0 0.0 14.0 0.00 0.42 0.42 67 1010.2
20260508200026 76 213 14.0 14.0 0.00 0.42 0.42 64 1010.4
20260508195527 76 160 8.0 11.0 0.00 0.42 0.42 65 1010.3
20260508195026 76 0 0.0 11.0 0.00 0.42 0.42 65 1010.4
20260508194527 75 155 9.0 10.0 0.00 0.42 0.42 66 1010.5
20260508194027 74 194 7.0 11.0 0.00 0.42 0.42 67 1010.7
20260508193526 74 172 9.0 11.0 0.00 0.42 0.42 67 1010.8
20260508193026 74 146 9.0 11.0 0.00 0.42 0.42 68 1010.9
20260508192527 75 202 7.0 14.0 0.00 0.42 0.42 69 1010.9
20260508192026 75 205 8.0 15.0 0.00 0.42 0.42 69 1010.9
20260508191527 75 217 11.0 15.0 0.00 0.42 0.42 67 1010.9
20260508191026 75 223 7.0 14.0 0.00 0.42 0.42 65 1010.9
20260508190526 75 228 9.0 11.0 0.00 0.42 0.42 65 1010.9
20260508190027 75 178 9.0 11.0 0.00 0.42 0.42 64 1010.9
20260508185526 75 180 10.0 13.0 0.00 0.42 0.42 66 1010.9
20260508185026 75 202 8.0 14.0 0.00 0.42 0.42 66 1011.1
20260508184526 75 156 10.0 14.0 0.00 0.42 0.42 65 1011.1
20260508184026 75 0 0.0 11.0 0.00 0.42 0.42 66 1011.2
20260508183527 75 139 4.0 11.0 0.00 0.42 0.42 65 1011.2
20260508183026 75 0 0.0 11.0 0.00 0.42 0.42 64 1011.1
20260508182526 74 133 9.0 12.0 0.00 0.42 0.42 67 1011.2
20260508182026 74 0 0.0 12.0 0.00 0.42 0.42 65 1011.3
20260508181526 74 0 0.0 13.0 0.00 0.42 0.42 65 1011.4
20260508180026 73 168 7.0 10.0 0.00 0.42 0.42 67 1011.8
20260508175526 73 212 9.0 10.0 0.00 0.42 0.42 67 1012.0
20260508175026 72 239 6.0 13.0 0.00 0.42 0.42 68 1012.0
20260508174526 72 161 5.0 13.0 0.00 0.42 0.42 68 1012.1
20260508174026 72 133 10.0 10.0 0.00 0.42 0.42 68 1012.3
20260508173527 72 220 9.0 10.0 0.00 0.42 0.42 69 1012.4
20260508173027 71 131 10.0 11.0 0.00 0.42 0.42 69 1012.4
20260508172526 72 199 5.0 11.0 0.00 0.42 0.42 70 1012.5
20260508172026 71 149 5.0 9.0 0.00 0.42 0.42 69 1012.5
20260508171526 71 131 6.0 8.0 0.00 0.42 0.42 74 1012.7
20260508171026 71 0 0.0 12.0 0.00 0.42 0.42 70 1012.6
20260508170527 69 209 6.0 12.0 0.00 0.42 0.42 72 1012.9
20260508170026 69 196 7.0 12.0 0.00 0.42 0.42 73 1012.7
20260508165526 69 0 0.0 10.0 0.00 0.42 0.42 71 1013.0
20260508165026 69 187 8.0 10.0 0.00 0.42 0.42 69 1013.1
20260508164526 69 157 6.0 11.0 0.00 0.42 0.42 70 1013.2
20260508164027 69 147 5.0 11.0 0.00 0.42 0.42 70 1013.2
20260508163527 69 0 0.0 11.0 0.00 0.42 0.42 68 1013.3
20260508163026 69 198 6.0 11.0 0.00 0.42 0.42 69 1013.3
20260508162526 69 162 7.0 11.0 0.00 0.42 0.42 67 1013.5
20260508162026 68 195 7.0 9.0 0.00 0.42 0.42 66 1013.5
20260508161026 68 0 0.0 10.0 0.00 0.42 0.42 67 1013.5
20260508160026 67 166 9.0 9.0 0.00 0.42 0.42 71 1013.6
20260508155526 66 0 0.0 9.0 0.00 0.42 0.42 71 1013.7
20260508155026 66 155 7.0 9.0 0.00 0.42 0.42 71 1013.8
20260508154527 66 141 8.0 9.0 0.00 0.42 0.42 71 1013.9
20260508154027 66 181 6.0 10.0 0.00 0.42 0.42 72 1014.0
20260508153026 67 163 8.0 10.0 0.00 0.42 0.42 68 1014.0
20260508152526 67 175 6.0 8.0 0.00 0.42 0.42 68 1014.2
20260508152026 66 193 4.0 9.0 0.00 0.42 0.42 73 1014.4
20260508151526 66 0 0.0 10.0 0.00 0.42 0.42 73 1014.4
20260508151026 66 124 4.0 11.0 0.00 0.42 0.42 77 1014.5
20260508150527 65 159 6.0 11.0 0.00 0.42 0.42 77 1014.5
20260508150026 65 146 7.0 9.0 0.00 0.42 0.42 76 1014.5
20260508145526 65 163 7.0 12.0 0.00 0.42 0.42 80 1014.5
20260508145026 65 0 0.0 12.0 0.00 0.42 0.42 79 1014.4
20260508144526 65 0 0.0 14.0 0.00 0.42 0.42 81 1014.5
20260508143526 64 0 0.0 12.0 0.00 0.42 0.42 80 1014.5
20260508143027 64 122 6.0 11.0 0.00 0.42 0.42 82 1014.5
20260508142526 64 0 0.0 10.0 0.00 0.42 0.42 80 1014.5
20260508141526 64 0 0.0 8.0 0.00 0.42 0.42 84 1014.6
20260508141026 63 0 0.0 9.0 0.00 0.42 0.42 86 1014.7
20260508140027 62 159 7.0 10.0 0.00 0.42 0.42 88 1014.7
20260508135527 62 150 8.0 10.0 0.00 0.42 0.42 87 1014.8
20260508135026 62 182 7.0 9.0 0.00 0.42 0.42 88 1014.9
20260508134026 62 0 0.0 10.0 0.00 0.42 0.42 89 1014.7
20260508133526 61 105 9.0 10.0 0.00 0.42 0.42 91 1014.8
20260508132526 61 98 7.0 10.0 0.00 0.42 0.42 92 1015.0
20260508131526 61 80 3.0 10.0 0.00 0.42 0.42 93 1015.0
20260508131026 60 104 8.0 10.0 0.00 0.42 0.42 92 1015.0
20260508130527 60 113 5.0 7.0 0.00 0.42 0.42 93 1014.9
20260508130027 60 128 5.0 6.0 0.00 0.42 0.42 93 1015.0
20260508125027 60 175 5.0 6.0 0.00 0.42 0.42 94 1014.9
20260508124527 60 161 4.0 9.0 0.05 0.42 0.42 94 1014.8
20260508124027 60 175 5.0 11.0 0.10 0.42 0.42 94 1014.6
20260508123026 60 138 9.0 11.0 0.21 0.42 0.42 95 1014.4
20260508122526 59 127 10.0 11.0 0.30 0.42 0.42 95 1014.4
20260508122027 59 133 9.0 10.0 0.35 0.42 0.42 95 1014.5
20260508120527 59 0 0.0 8.0 0.36 0.42 0.42 95 1014.5
20260508120027 59 0 0.0 12.0 0.36 0.42 0.42 96 1014.6
20260508115527 59 165 5.0 12.0 0.36 0.42 0.42 97 1014.5
20260508115026 59 144 8.0 11.0 0.36 0.42 0.42 97 1014.4
20260508114027 59 157 6.0 11.0 0.26 0.32 0.32 96 1014.7
20260508113527 59 225 8.0 12.0 0.15 0.21 0.21 95 1015.2
20260508113027 59 189 7.0 12.0 0.15 0.21 0.21 95 1014.7
20260508112527 59 194 12.0 12.0 0.06 0.12 0.12 93 1014.5
20260508112026 60 210 9.0 11.0 0.01 0.07 0.07 91 1014.5
20260508111527 60 168 8.0 11.0 0.00 0.06 0.06 89 1014.4
20260508111027 60 221 9.0 11.0 0.00 0.06 0.06 89 1014.9
20260508105026 60 187 4.0 9.0 0.00 0.06 0.06 89 1014.1
20260508104027 60 140 7.0 11.0 0.06 0.06 0.06 89 1013.7
20260508103527 60 127 4.0 7.0 0.06 0.06 0.06 91 1014.0
20260508103027 60 182 5.0 7.0 0.06 0.06 0.06 91 1014.2
20260508102527 60 194 4.0 7.0 0.06 0.06 0.06 90 1014.1
20260508102026 60 196 4.0 7.0 0.06 0.06 0.06 90 1014.1
20260508101527 60 167 4.0 8.0 0.06 0.06 0.06 90 1014.0
20260508101026 60 138 5.0 8.0 0.06 0.06 0.06 90 1013.9
20260508100527 60 126 5.0 7.0 0.06 0.06 0.06 90 1014.1
20260508100027 59 203 6.0 8.0 0.06 0.06 0.06 89 1014.4
20260508095527 60 183 5.0 8.0 0.06 0.06 0.06 89 1014.2
20260508094527 60 235 7.0 7.0 0.00 0.00 0.00 84 1014.6
20260508094027 60 187 2.0 3.0 0.00 0.00 0.00 84 1014.3
20260508093527 60 91 2.0 3.0 0.00 0.00 0.00 83 1014.1
20260508093027 60 144 2.0 5.0 0.00 0.00 0.00 83 1014.1
20260508092527 60 201 1.0 5.0 0.00 0.00 0.00 83 1014.2
20260508092026 60 138 5.0 5.0 0.00 0.00 0.00 83 1014.1
20260508091527 60 177 4.0 7.0 0.00 0.00 0.00 83 1014.1
20260508091027 60 208 5.0 7.0 0.00 0.00 0.00 83 1014.1
20260508090028 60 190 4.0 10.0 0.00 0.00 0.00 83 1013.9
20260508085027 60 152 5.0 9.0 0.00 0.00 0.00 83 1013.8
20260508084526 60 139 5.0 6.0 0.00 0.00 0.00 83 1013.9
20260508083027 61 169 5.0 7.0 0.00 0.00 0.00 80 1014.2
20260508082527 61 170 4.0 6.0 0.00 0.00 0.00 78 1014.3
20260508082027 61 135 4.0 6.0 0.00 0.00 0.00 77 1014.3
20260508081527 61 148 5.0 6.0 0.00 0.00 0.00 77 1014.4
20260508081026 61 157 5.0 5.0 0.00 0.00 0.00 78 1014.5
20260508080527 61 143 5.0 5.0 0.00 0.00 0.00 79 1014.4
20260508080027 60 161 4.0 6.0 0.00 0.00 0.00 79 1014.5
20260508075527 60 158 4.0 6.0 0.00 0.00 0.00 81 1014.7
20260508074527 60 228 5.0 6.0 0.00 0.00 0.00 79 1014.9
20260508073527 60 196 4.0 7.0 0.00 0.00 0.00 80 1014.9
20260508073027 60 182 4.0 7.0 0.00 0.00 0.00 79 1015.1
20260508072527 60 203 6.0 8.0 0.00 0.00 0.00 81 1015.4
20260508072027 59 205 5.0 9.0 0.00 0.00 0.00 83 1015.5
20260508071527 59 222 7.0 9.0 0.00 0.00 0.00 85 1015.7
20260508071026 59 230 9.0 9.0 0.00 0.00 0.00 84 1015.7
20260508070527 59 244 7.0 8.0 0.00 0.00 0.00 83 1015.6
20260508070026 59 232 3.0 4.0 0.00 0.00 0.00 82 1015.4
20260508065527 59 235 4.0 6.0 0.00 0.00 0.00 82 1015.5
20260508065027 59 197 2.0 7.0 0.00 0.00 0.00 82 1015.3
20260508064527 59 219 5.0 7.0 0.00 0.00 0.00 81 1015.7
20260508064027 60 220 6.0 6.0 0.00 0.00 0.00 81 1015.8
20260508063027 59 229 4.0 5.0 0.00 0.00 0.00 81 1015.8
20260508062527 60 230 5.0 5.0 0.00 0.00 0.00 80 1016.0
20260508062027 60 217 4.0 4.0 0.00 0.00 0.00 80 1015.9
20260508061527 60 199 2.0 6.0 0.00 0.00 0.00 80 1015.8
20260508061027 60 180 3.0 6.0 0.00 0.00 0.00 81 1015.9
20260508060527 60 146 5.0 6.0 0.00 0.00 0.00 81 1016.0
20260508060028 59 165 3.0 4.0 0.00 0.00 0.00 81 1016.1
20260508055027 59 166 1.0 2.0 0.00 0.00 0.00 81 1016.1
20260508054527 59 195 1.0 2.0 0.00 0.00 0.00 81 1016.1
20260508054027 59 122 2.0 3.0 0.00 0.00 0.00 81 1016.0